Погода в Максатихе

Погода в Максатихе : погода сейчас, прогноз погоды и архив. Всё, что Вы хотите узнать о погоде в Максатихе!

Поиск расширенной информации на нашем сайте:

Другие новости

Новости СМИ2

Главная страница сайта

Новости сайта

02.10.2013

Напоминаем, что на нашем новом сайте вы можете получить высокодетализированные прогнозы погоды по пунктам России, СНГ и мира (включающие важные для авиации метеовеличины, такие как направление и скорость ветра, видимость, явления погоды, количество и форма облачности, нижняя и верхняя граница облачности), а также ознакомиться с разнообразными материалами по авиационной метеорологии и подборкой полезных ссылок на эту тему.

Сайт Метеоцентр.Азия посвящён разработке технологий оптимизации авиаметеорологического обслуживания, включая проектирование и перспективное создание нескольких автоматизированных авиаметеорологических систем:
- система выпуска высокодетальных прогностических карт явлений погоды для нижнего воздушного пространства по России и ближнему зарубежью;
- система верификации прогнозов TAF (выпускаемых синоптиками официальных АМСГ РФ и ближнего зарубежья) и AUTOTAF (выпускаемых сайтом Метеоцентр.Азия) - выявление ошибок, онлайн-сопоставление с фактической погодой METAR, автоматическое внесение коррективов в прогнозы при резком отклонении фактической погоды от прогноза, подсчёт оправдываемости прогнозов по элементам и в целом;
- система обработки, анализа и отображения авиаметеорологической информации для применения провайдерами метеорологической информации.


Погода в Максатихе - сегодня

Время (UTC), дата Ветер
(°,м/с) 
Видим.   Явления Облачность Т
(°С)
Тd
(°С)
f(%) Тe
(°С)
Pmin
(гПа)
dP
(гПа)
Po
(мм)
O2
(г/м3)
Тmin Tmax R s Состояние
почвы
12 19.02.17 210 (ЮЗ) 1000 м  ливневой снег [диам. отлож. мокр. снега 2 мм]  9/9 600 м кучево-дожд. 
[Cb cap]
+0.2 -0.6 94 -2  1004.2  -3.1  740  298           
15 19.02.17 220 (ЮЗ) 5{10}  2000 м  снег{ливн. осадки}  10/10 300 м 
[Ns]
+0.1 -0.1 99 -3  1001.1  -3  738  297         
18 19.02.17 230 (ЮЗ) 6-11{11}  4000 м  слаб. снег{ливн. осадки}  10/10 200 м 
[Frnb|Ns]
+0.8 -0.1 94 -3  999.3  -1.6  736  296    +0.8     
21 19.02.17 250 (З) 5-10{12}  4000 м  слаб. снег  10/10 100 м 
[Frnb|Ns]
+1.5 -0.1 89 -1  998.7  -0.6  736  295           
00 20.02.17 240 (ЮЗ) 5-10{12}  10 км  слаб. снег{дождь}  10/10 100 м 
[Frnb|Ns]
+1.8 -0.3 86 -1  997.6  -1  735  294           
03 20.02.17 230 (ЮЗ) 5-10{11}  10 км  в посл. час морось{снег}  10/10 100 м 
[St]
+1.8 +0 88 -1  995.6  -2  734  294  +0.1       
06 20.02.17 230 (ЮЗ) 5-11{13}  10 км  слаб. дождь{снег}  10/10 100 м 
[Frnb|Ns]
+2.2 +0.5 88 994.7  -0.8  733  293  +0.8    0.3  31  неравномерный
мокрый или
старый снег
100% 
09 20.02.17 250 (З) 6-11{14}  10 км  слаб. ливневой дождь  9/9 600 м кучево-дожд. 
[Cb cap]
+2.6 +0.3 85 994.5  -0.2  733  292           
12 20.02.17 240 (ЮЗ) 5-10{15}  10 км  слаб. ливневой дождь  9/9 600 м кучево-дожд. 
[Cb cap]
+2.6 +0.4 85 993.6  -0.9  732  292           
15 20.02.17 220 (ЮЗ) 4{15}  4000 м  слаб. дождь{ливн. осадки}  10/10 200 м 
[Frnb|Ns]
+1.2 +0.5 95 -1  992.4  -1.3  731  293         
18 20.02.17 230 (ЮЗ) 3{15}  4000 м  слаб. дождь{ливн. осадки, снег}  10/10 200 м 
[Frnb|Ns]
+1.2 +0.4 94 990.9  -1.5  730  293    +3.2     
21 20.02.17 220 (ЮЗ) 4000 м  слаб. снег{дождь}  10/10 200 м 
[Frnb|Ns]
+0.9 +0.3 96 -1  989.2  -1.8  729  293           
00 21.02.17 210 (ЮЗ) 4000 м  слаб. снег{дождь}  10/10 300 м 
[Ns]
+0.3 -0 98 -1  986.7  -2.4  727  293           
03 21.02.17 200 (Ю) 4000 м  слаб. снег  10/10 300 м 
[Ns]
+0.2 -0.1 98 -2  984.2  -2.5  725  292  +0.2       
06 21.02.17 210 (ЮЗ) 4000 м  в посл. час снег  9/9 300 м 
[Sc]
+0.3 +0 98 982.9  -1.3  724  291  +0.2    30  неравномерный
мокрый или
старый снег
100% 
09 21.02.17 220 (ЮЗ) 4000 м  слаб. снег  10/9 300 м средняя 
[Frnb|As op]
+1.2 +0.6 96 +1  982.5  -0.3  724  290           
12 21.02.17 220 (ЮЗ) 4000 м  в посл. час морось{снег, дождь}  10/10 200 м 
[St]
+1.5 +0.7 94 +2  982.1  -0.4  724  290           
15 21.02.17 240 (ЮЗ) 4000 м  слаб. снег{дождь}  10/10 300 м 
[Ns]
+0.6 +0.2 97 +1  982.8  0.6  724  291         
18 21.02.17 300 (СЗ) 4000 м  слаб. снег{дождь}  10/10 100 м 
[Frnb|Ns]
+0.2 +0 99 -1  984.7  1.9  726  292    +1.8     
21 21.02.17 350 (С) 4{10}  10 км  слаб. снег{морось} [диам. гололёда 0 мм]  10/10 100 м 
[Frnb|Ns]
-3.5 -5.6 85 -6  989.2  4.2  729  298           
00 22.02.17 350 (С) 4{10}  10 км  слаб. снег{морось} [диам. гололёда 0 мм]  10/10 600 м 
[Ns]
-4.5 -6.8 84 -8  992.9  3.6  731  300           
03 22.02.17 010 (С) 10 км  слаб. снег  10/10 600 м 
[Ns]
-8.1 -11.2 78 -11  997  3.6  734  306  -8.1    0.5     
06 22.02.17 030 (СВ) 4000 м  слаб. снег  10/0 средняя 
[As op]
-11 -13.9 79 -14  1000.2  736  310  -11    0.2  28  неравномерный
сухой снег
100% 
09 22.02.17 030 (СВ) 4000 м  слаб. ливневой снег  9/9 600 м кучево-дожд. 
[Cb cap]
-10.1 -14 73 -10  1001.7  1.4  737  310           
12 22.02.17 050 (СВ) 10 км  слаб. снег{ливн. осадки}  10/3 300 м средняя 
[Frnb|As op]
-7.9 -13.1 66 -8  1001.4  737  307           
Время (UTC), дата Ветер
(°,м/с) 
Видим.   Явления Облачность Т
(°С)
Тd
(°С)
f(%) Тe
(°С)
Pmin
(гПа)
dP
(гПа)
Po
(мм)
O2
(г/м3)
Тmin Tmax R s Состояние
почвы

Для получения пояснительной информации подведите курсор к названию столбца.

ПОГОДА в Максатихе - архив

Всё, что Вы хотите узнать о погоде в Максатихе - удобно и подробно!

Выберите нужную дату (начиная с 1 января 2015* года) и нажмите кнопку "Найти".
Будут отображены архивные сводки погоды по пункту Максатиха, начиная с указанной даты.


Отображать данные в формате CSV (для использования в таблицах Excel)


Внимание! Наш архив погоды предназначен исключительно для личного некоммерческого использования в познавательных целях. Если Вам необходимы официальные справки о состоянии погоды (для производственных, юридических, коммерческих и т.п. целей), обращайтесь в органы Росгидромета.

*Примечание: данная дата относится к архиву по метеостанциям СССР (Россия, СНГ, Балтия).
Архив по метеостанциям Зарубежной Европы и Азии (кроме Китая) хранится 10 дней, по другим регионам земного шара (Китай, Африка, Америка, Австралия, Океания) - 1 день.

Максатиха - район местоположения метеостанции


Название, широта, долгота, высота метеостанции:
Максатиха 57.8°ш. 35.9°д. 140 м над ур. моря [Российская Федерация]

Дополнительная информация

В oтличие oт бoльшинства пoгoдных сайтoв мы публикуем пoдрoбную метеoинфoрмацию в детальнoм прoфессиoнальнoм фoрмате.

Характеристики температуры и влажнoсти вoздуха измеряются на высoте 2 м в тени вдали oт зданий и деревьев.
Скoрoсть ветра измеряется на высoте 10 м (на урoвне рoста челoвека скoрoсть ветра ниже в 1.5-2 раза). Если метеoстанция нахoдится в гoрoде или в лесу, тo скoрoсть ветра занижена на 2-4 м/с пo сравнению с oткрытым местoм. Скoрoсть ветра над акватoриями крупных рек и oзёр, а также на вершинах хoлмoв на 2-5 м/с выше, чем в oбычных услoвиях.
Атмoсфернoе давление в разных тoчках местнoсти мoжет значительнo oтличаться oт давления на метеoстанции, в зависимoсти oт услoвий рельефа (при пoдъёме на 10 м давление пoнижается примернo на 1 мм рт.ст.).